Wind_Speed
12 12 12 12 12 12 12 12 12 12 12 12 12 12 12 11 11 12 12 12 12 13 13 14 15 15 15 15 15 15 15 15 15 15 15 15 15 15 14 14 14 15 16
13 13 13 13 13 13 13 13 13 13 13 13 13 12 13 13 13 14 14 14 14 14 15 15 15 16 17 17 17 16 16 16 16 16 16 16 17 17 17 17 17 18 18
15 15 14 14 14 14 14 14 14 14 14 14 14 14 14 14 15 16 16 16 16 16 16 16 17 17 18 18 18 17 17 17 17 17 18 18 19 19 19 20 20 20 20
16 16 16 15 15 15 15 15 14 14 14 15 15 15 15 16 17 17 18 18 17 17 17 18 18 18 19 19 19 19 18 19 19 19 19 20 21 21 21 21 22 22 22
16 16 16 17 17 17 16 15 15 15 15 16 15 16 16 17 18 18 19 19 18 18 18 19 19 20 20 21 20 20 20 21 21 21 21 22 22 22 23 23 23 23 23
17 17 17 18 18 18 17 16 16 16 16 16 16 17 17 18 18 19 19 19 19 20 20 20 20 21 21 22 22 22 22 22 23 23 23 23 24 24 24 24 24 24 24
17 17 17 18 17 17 17 17 17 17 17 17 17 18 18 19 19 19 20 20 20 20 21 21 21 22 23 22 23 23 23 24 24 24 24 25 25 26 26 26 26 25 25
17 17 17 17 18 17 16 17 17 16 16 17 18 18 19 19 19 20 20 20 21 21 22 22 23 23 23 23 23 24 24 25 25 26 26 26 27 27 27 27 27 26 25
17 18 18 17 17 17 17 17 17 18 18 18 18 19 19 19 20 20 21 21 22 22 23 23 23 23 23 24 24 25 25 25 26 26 27 27 27 27 27 27 27 26 26
17 17 17 17 17 18 18 18 18 19 19 19 20 20 20 21 21 22 22 22 22 23 23 24 24 24 24 24 25 26 26 26 26 27 27 26 26 26 26 26 27 26 26
18 18 18 18 19 19 19 19 20 20 20 20 20 21 21 21 22 22 22 23 22 23 23 24 24 25 25 25 26 26 26 26 27 27 27 27 27 26 26 26 27 27 27
19 19 19 20 20 21 20 20 21 21 21 21 21 22 22 23 23 23 22 23 24 24 24 24 25 26 27 26 27 27 27 27 28 28 28 27 27 27 27 27 28 28 28
21 21 21 21 22 22 22 22 23 23 23 23 23 23 23 24 25 25 26 26 25 25 25 26 26 27 27 28 28 28 28 29 29 29 28 28 28 28 28 29 29 29 29
23 22 23 23 23 23 23 24 24 24 24 25 25 25 25 26 26 27 27 27 27 27 27 28 28 27 28 28 28 28 28 29 29 29 29 29 29 29 30 30 30 30 30
23 23 24 24 24 25 25 25 26 26 26 26 26 27 27 27 28 28 28 29 29 29 30 29 28 28 28 28 28 28 29 30 30 30 30 30 30 30 31 32 31 31 31
24 24 25 25 26 26 26 27 28 28 28 28 28 29 29 29 29 30 30 30 31 31 31 31 30 30 29 29 29 29 30 30 30 31 31 31 32 32 32 32 33 32 32
25 25 26 26 27 28 28 29 29 29 29 30 31 31 31 31 32 32 32 32 32 32 32 31 31 30 30 30 31 31 31 30 31 31 31 31 32 32 33 33 33 34 34
27 27 28 28 29 29 30 30 31 31 30 31 31 32 33 33 33 34 34 33 33 33 33 32 32 31 32 32 33 33 32 32 32 32 32 32 33 34 34 34 34 34 34
27 28 28 29 30 30 31 31 31 32 32 32 33 34 35 35 35 35 34 34 34 34 34 33 33 33 33 34 33 33 33 33 34 34 34 33 34 35 35 35 35 35 35
28 29 29 30 30 31 32 32 32 33 33 34 34 35 36 36 36 36 35 35 35 35 35 35 34 35 35 35 34 34 34 35 35 35 35 35 35 35 35 36 36 36 36
29 30 30 31 31 32 32 33 33 34 35 36 36 36 36 37 37 37 36 36 36 36 37 37 37 37 37 37 36 36 36 36 36 37 37 37 37 37 37 38 38 38 38
31 31 31 32 32 33 33 34 36 36 37 37 38 38 38 38 38 38 38 37 37 37 37 38 38 38 38 38 38 38 37 37 37 38 38 39 39 39 39 39 39 39 39
32 32 33 33 33 34 34 35 36 37 38 39 39 39 39 40 39 39 39 39 38 38 38 38 39 39 39 39 39 39 38 39 39 39 39 39 40 40 40 40 41 41 41
33 33 34 34 35 35 35 36 37 38 38 39 39 40 40 39 39 39 40 40 39 39 39 39 39 40 39 39 39 40 40 40 41 41 41 41 41 41 41 41 41 42 42
34 34 35 35 36 37 37 37 38 38 39 39 39 39 39 39 39 39 39 39 39 39 39 39 39 40 40 40 41 41 41 41 42 43 43 43 43 43 43 43 43 43 43
36 36 36 37 37 37 37 38 39 39 39 39 39 39 39 40 40 40 40 40 40 40 40 40 40 40 41 41 41 42 42 43 43 43 44 44 45 45 45 45 45 45 46
Wind_Direction
283 283 284 284 283 281 280 279 279 279 277 277 277 278 280 279 281 282 284 287 286 284 280 275 275 277 278 278 279 280 281 281 281 282 281 280 280 282 283 286 286 288 287
280 279 281 282 281 279 279 279 278 278 277 275 275 277 277 277 279 282 284 285 286 284 281 278 277 276 277 276 276 276 278 280 283 282 282 281 280 278 279 282 284 286 287
278 278 278 278 279 278 279 279 279 277 274 273 275 276 277 278 279 282 284 285 285 284 281 279 279 277 276 275 275 275 275 277 280 280 281 281 281 279 278 280 281 284 285
277 276 277 277 277 277 279 278 278 278 276 275 273 275 276 279 280 282 282 282 282 281 281 281 280 281 277 275 274 274 275 276 278 279 280 281 282 280 280 281 282 283 285
278 277 277 277 276 277 278 277 277 276 276 277 277 276 277 280 281 282 282 281 281 280 281 281 280 280 280 277 275 274 276 277 278 280 281 280 280 279 280 281 282 282 284
282 280 279 278 277 276 275 276 277 277 278 279 279 278 277 280 281 281 282 281 281 281 281 280 280 279 280 278 276 275 275 277 278 279 280 281 279 279 280 281 281 282 282
281 280 279 277 274 273 272 274 275 276 279 280 283 282 281 282 283 282 282 283 283 282 281 280 279 279 278 278 276 276 276 276 278 278 278 280 280 280 279 280 280 280 281
280 280 279 277 275 273 273 275 277 279 282 282 283 284 285 284 283 283 283 283 283 282 281 281 281 280 279 278 278 277 279 278 278 278 279 281 281 281 281 281 281 281 280
280 278 276 277 278 275 275 277 278 279 280 282 284 286 286 286 286 285 285 285 284 282 281 282 281 281 280 279 278 278 279 280 279 278 279 280 281 281 281 281 281 281 281
281 279 276 276 278 276 274 276 279 280 281 284 284 285 287 288 288 286 286 287 286 284 283 283 281 281 281 280 279 278 278 278 280 280 280 281 281 282 281 281 282 281 281
278 277 277 277 278 278 276 276 279 281 283 285 287 288 289 289 289 288 286 286 286 286 285 283 282 282 281 280 280 278 278 278 281 281 281 280 280 282 282 280 280 280 281
275 276 277 277 279 278 277 277 279 282 283 285 288 288 288 288 288 286 285 287 288 288 286 285 284 283 282 280 279 277 276 278 281 282 281 279 279 280 281 281 280 279 280
274 276 276 278 279 279 278 278 278 280 282 283 285 287 288 287 286 286 286 287 288 288 286 285 285 284 282 280 279 278 277 278 280 281 281 280 279 279 279 280 280 280 280
273 274 276 277 278 278 279 279 280 281 282 284 285 287 287 288 288 289 288 288 288 287 286 285 284 284 283 282 280 279 278 279 281 280 280 279 279 279 280 281 281 281 281
274 274 276 277 277 278 279 280 280 281 283 284 286 287 287 288 289 289 289 288 288 287 286 285 284 284 285 284 280 278 279 280 280 281 281 280 280 280 281 281 280 280 281
276 276 276 276 277 278 279 280 281 281 283 285 286 287 288 289 289 288 288 288 287 287 286 285 283 283 284 283 282 281 281 280 280 280 281 281 281 281 280 280 279 280 281
277 278 278 279 279 279 279 280 281 281 283 284 286 286 287 288 288 288 288 287 287 286 286 286 284 282 281 280 282 283 282 281 281 282 281 281 282 282 281 282 282 282 282
277 278 279 280 281 281 281 281 282 282 282 284 286 286 286 287 287 287 287 287 286 285 285 284 283 281 281 282 282 282 282 281 281 281 281 282 282 283 283 282 282 281 282
278 278 279 279 281 281 281 282 282 282 283 284 285 286 287 287 287 287 287 285 284 283 282 282 280 280 282 283 284 283 282 281 281 280 280 281 283 282 282 282 281 282 282
281 281 281 281 282 282 282 282 282 283 285 285 286 287 287 287 287 286 286 284 283 281 280 280 280 280 281 282 282 282 282 281 281 281 280 280 282 283 283 282 282 282 282
282 283 282 282 282 283 283 283 283 284 285 286 287 288 288 288 288 287 286 284 282 281 279 279 279 279 280 280 280 281 281 280 280 279 280 281 281 282 283 283 282 282 281
282 283 283 284 284 284 285 285 284 285 285 286 286 286 287 287 288 288 287 285 283 281 280 280 279 279 279 279 280 280 280 280 280 280 280 280 280 282 282 283 282 282 281
282 283 283 284 285 286 286 286 286 286 286 286 287 287 287 287 287 287 287 287 285 283 282 281 281 279 279 280 280 279 279 280 280 280 280 281 281 281 282 283 282 282 281
282 282 283 284 285 286 287 288 288 288 288 287 287 287 287 287 287 287 287 286 285 284 282 282 281 280 280 280 279 279 279 280 280 280 280 280 281 281 281 281 282 281 281
282 282 283 284 285 286 287 288 289 289 289 288 288 288 288 288 288 288 287 285 284 283 283 283 282 281 280 280 280 279 279 280 281 281 280 280 281 281 281 281 281 280 279
282 283 284 285 286 286 287 288 288 289 289 288 288 288 289 289 289 288 287 285 284 284 283 283 282 281 281 281 281 281 280 280 280 280 281 281 280 280 280 280 280 278 278
Height
5837 5836 5835 5834 5833 5832 5832 5831 5830 5830 5829 5828 5828 5828 5827 5826 5826 5825 5825 5824 5823 5823 5822 5822 5822 5821 5821 5821 5820 5820 5819 5818 5818 5817 5816 5816 5815 5814 5813 5812 5810 5809 5808
5834 5833 5832 5831 5829 5828 5827 5827 5826 5825 5825 5824 5824 5823 5823 5822 5822 5821 5821 5820 5819 5818 5818 5817 5817 5816 5816 5816 5815 5815 5814 5814 5813 5812 5811 5811 5810 5809 5808 5807 5806 5804 5803
5829 5828 5827 5826 5825 5824 5823 5822 5821 5820 5820 5819 5819 5818 5818 5818 5817 5816 5816 5815 5814 5813 5813 5812 5811 5811 5811 5810 5810 5810 5809 5809 5808 5807 5806 5805 5805 5803 5802 5802 5800 5799 5797
5824 5823 5823 5822 5821 5820 5819 5817 5816 5815 5815 5814 5814 5814 5813 5813 5812 5811 5810 5809 5809 5808 5807 5807 5806 5805 5805 5804 5804 5804 5804 5803 5802 5802 5801 5800 5798 5797 5796 5795 5794 5792 5791
5819 5818 5817 5817 5816 5815 5814 5813 5812 5811 5810 5810 5809 5809 5808 5807 5806 5805 5804 5804 5803 5802 5802 5801 5800 5799 5799 5798 5798 5798 5797 5797 5796 5795 5794 5793 5792 5791 5789 5788 5787 5786 5784
5813 5812 5811 5811 5810 5809 5808 5808 5807 5807 5806 5805 5804 5803 5802 5802 5801 5800 5799 5798 5797 5796 5795 5795 5794 5793 5792 5791 5791 5791 5790 5790 5789 5788 5787 5786 5785 5783 5782 5780 5779 5778 5777
5807 5806 5806 5805 5804 5803 5803 5802 5802 5801 5801 5800 5799 5798 5797 5796 5795 5794 5792 5792 5791 5790 5789 5788 5787 5786 5785 5785 5784 5783 5783 5782 5782 5781 5780 5778 5777 5775 5774 5772 5771 5769 5768
5802 5801 5800 5799 5799 5798 5798 5797 5797 5796 5795 5795 5794 5792 5791 5790 5789 5787 5786 5785 5784 5783 5782 5781 5780 5779 5778 5777 5776 5776 5775 5774 5773 5772 5771 5770 5768 5767 5765 5764 5762 5761 5760
5797 5796 5795 5794 5793 5793 5793 5792 5792 5791 5790 5789 5788 5787 5786 5784 5782 5781 5780 5779 5777 5776 5775 5774 5773 5772 5771 5770 5769 5768 5767 5766 5765 5763 5762 5761 5759 5758 5756 5755 5754 5752 5751
5791 5790 5789 5789 5788 5787 5787 5787 5786 5786 5785 5784 5782 5781 5780 5778 5776 5775 5773 5772 5770 5769 5768 5766 5765 5764 5763 5762 5761 5760 5759 5758 5757 5755 5754 5753 5751 5749 5748 5746 5745 5744 5743
5785 5784 5784 5783 5783 5782 5782 5781 5781 5780 5779 5778 5776 5775 5773 5772 5770 5768 5766 5765 5763 5762 5760 5759 5758 5756 5755 5754 5752 5751 5751 5750 5748 5747 5746 5744 5743 5741 5740 5738 5737 5736 5734
5779 5779 5778 5778 5777 5776 5776 5775 5775 5774 5773 5772 5770 5769 5767 5765 5763 5761 5760 5758 5756 5754 5753 5751 5750 5748 5747 5745 5744 5743 5742 5741 5740 5738 5737 5736 5735 5733 5732 5730 5729 5727 5726
5772 5772 5772 5771 5771 5770 5770 5769 5768 5767 5766 5765 5764 5762 5760 5759 5757 5754 5752 5750 5749 5747 5745 5744 5742 5740 5738 5737 5736 5734 5733 5732 5731 5730 5728 5727 5726 5725 5723 5721 5720 5718 5717
5765 5765 5765 5765 5764 5764 5763 5762 5761 5760 5759 5758 5756 5755 5753 5751 5749 5747 5745 5743 5741 5739 5737 5735 5733 5731 5730 5728 5727 5725 5724 5723 5722 5721 5719 5718 5717 5715 5714 5712 5711 5709 5708
5758 5758 5758 5758 5757 5756 5756 5755 5754 5753 5751 5750 5749 5747 5745 5743 5741 5739 5736 5734 5732 5730 5728 5726 5725 5723 5721 5719 5718 5717 5716 5714 5713 5712 5710 5709 5707 5706 5705 5703 5701 5700 5698
5751 5751 5751 5750 5749 5749 5748 5747 5745 5744 5743 5741 5740 5738 5736 5734 5732 5729 5727 5725 5723 5721 5718 5717 5715 5714 5712 5711 5709 5708 5707 5705 5704 5702 5701 5699 5698 5696 5695 5693 5691 5690 5688
5744 5744 5743 5742 5741 5740 5739 5738 5737 5736 5734 5732 5730 5729 5727 5724 5722 5720 5717 5715 5713 5711 5709 5707 5705 5704 5703 5701 5700 5699 5697 5696 5694 5692 5691 5689 5688 5686 5684 5683 5681 5679 5678
5736 5736 5735 5734 5733 5732 5730 5729 5728 5726 5725 5723 5721 5719 5717 5715 5712 5710 5707 5705 5703 5701 5699 5697 5695 5694 5693 5691 5690 5688 5687 5685 5684 5682 5681 5679 5677 5676 5674 5672 5670 5668 5667
5728 5727 5726 5725 5724 5722 5721 5719 5718 5716 5715 5713 5711 5709 5707 5704 5701 5699 5696 5694 5692 5690 5688 5687 5685 5684 5682 5680 5679 5677 5676 5674 5673 5671 5670 5668 5666 5665 5663 5661 5659 5657 5655
5719 5718 5716 5715 5714 5712 5711 5709 5708 5706 5704 5702 5700 5698 5695 5693 5690 5688 5685 5683 5681 5679 5677 5676 5674 5673 5671 5669 5668 5666 5665 5663 5661 5660 5658 5657 5655 5653 5651 5650 5648 5646 5644
5710 5708 5707 5705 5704 5702 5700 5699 5697 5695 5693 5691 5689 5686 5684 5681 5678 5676 5673 5671 5669 5667 5665 5664 5662 5661 5659 5657 5656 5654 5653 5651 5650 5648 5647 5645 5643 5641 5640 5638 5636 5634 5632
5700 5699 5697 5695 5693 5691 5689 5688 5686 5683 5681 5679 5677 5675 5672 5669 5666 5664 5661 5658 5656 5654 5652 5651 5649 5648 5646 5645 5643 5642 5640 5639 5637 5636 5634 5632 5631 5629 5627 5626 5624 5622 5620
5690 5688 5687 5685 5683 5681 5679 5676 5674 5672 5669 5667 5664 5662 5659 5656 5654 5651 5648 5646 5643 5641 5639 5637 5636 5634 5633 5631 5630 5628 5627 5626 5624 5622 5621 5619 5618 5616 5615 5613 5611 5609 5607
5679 5677 5676 5674 5672 5669 5667 5665 5662 5660 5657 5654 5651 5649 5646 5643 5640 5638 5635 5633 5630 5628 5626 5624 5623 5621 5619 5618 5616 5615 5613 5612 5610 5609 5607 5606 5604 5602 5601 5599 5597 5596 5594
5668 5666 5664 5662 5660 5658 5655 5653 5650 5647 5644 5641 5638 5635 5633 5630 5627 5624 5622 5619 5617 5615 5613 5611 5609 5608 5606 5604 5602 5601 5599 5598 5596 5594 5593 5591 5590 5588 5586 5585 5583 5581 5580
5656 5654 5652 5650 5648 5645 5643 5640 5637 5634 5631 5628 5626 5623 5620 5617 5614 5612 5609 5606 5604 5602 5600 5598 5596 5594 5592 5591 5589 5587 5585 5583 5582 5580 5578 5577 5575 5573 5572 5570 5568 5567 5565